Location: Haliburton Scout Reserve
(45.0900°N, 78.3200°W)
Time: 16:31:21
(UTC-05:00)

Tiangong - Visible Passes

Search period start: 01 December 2021 00:00
Search period end: 11 December 2021 00:00
Orbit: 380 x 384 km, 41.5° (Epoch: 01 December)

Date Brightness Start Highest point End Pass type
(mag) Time Alt. Az. Time Alt. Az. Time Alt. Az.
08 Dec 3.4 18:37:32 10° SSW 18:38:53 17° S 18:38:53 17° S visible
09 Dec 3.5 17:38:00 10° S 17:39:36 13° SSE 17:41:11 10° ESE visible
09 Dec 4.2 19:12:56 10° SW 19:13:28 14° SW 19:13:28 14° SW visible
10 Dec 2.5 18:12:43 10° SW 18:15:26 26° SSE 18:15:50 26° SSE visible
